Powrót do katalogu

STARLINK-34910

AktywnyŁącznośćVLEO
NORAD 66269·PAYLOAD·🇺🇸 United States

Wystrzelony Oct 31, 2025 z Vandenberg Space Force Base

Loading…

Następne Przeloty (najbliższe 24 godziny)

TLE

ŚwieżeSource: CelesTrak SupGP

Epoka: Sep 15, 2026, 03:53 UTC

1 66269C 25247E   26258.16229167  .00048225  00000+0  14238-2 0  2584
2 66269  53.1604  27.0119 0001114  94.9226 261.5729 15.34388580    17

Śledź STARLINK-34910 w czasie rzeczywistym z AllMySat

Download on the App Store